This demonstration page uses our WeatherBlox Daily Observations layout. Learn more.

Left ArrowRight Arrow

38.88101, -77.10428

Hourly Observations for December 2, 2015

Temp ( °F °C ) Dew Point ( °F °C ) Humidity (%) Winds ( mph kmh ) Pressure ( in mb ) Visibility ( mi km ) Precip ( " mm )
12:52 am 00:52 Mostly Cloudy with Fog 48 8.9 48 8.9 100 100 N N/A 29.97 1015 0 0 N/A
1:20 am 01:20 Mostly Cloudy with Fog 48 9 48 9 100 100 N N/A 29.94 1014 1 2 N/A
1:52 am 01:52 Mostly Cloudy with Fog 48 8.9 48 8.9 100 100 N N/A 29.94 1014 1 2 N/A
2:40 am 02:40 Mostly Cloudy with Fog 48 9 48 9 100 100 N 3 6 29.94 1014 1 2 N/A
2:52 am 02:52 Mostly Cloudy with Light Rain 49 9.4 49 9.4 100 100 NNE 3 6 29.94 1014 1 2 N/A
3:52 am 03:52 Mostly Cloudy with Light Rain 50 10 49 9.4 96 96 N 3 6 29.93 1014 1 2 0.01 0.25
4:23 am 04:23 Mostly Cloudy with Light Rain 49 9.4 49 9.4 100 100 N N/A 29.91 1013 1 2 0.01 0.25
4:52 am 04:52 Mostly Cloudy with Fog 49 9.4 49 9.4 100 100 NNE 5 7 29.91 1013 1 2 0.01 0.25
5:21 am 05:21 Mostly Cloudy with Light Rain 49 9.4 49 9.4 100 100 N N/A 29.91 1013 1 2 N/A
5:45 am 05:45 Mostly Cloudy with Light Rain 49 9.4 49 9.4 100 100 NE 6 9 29.88 1012 1 2 N/A
5:52 am 05:52 Mostly Cloudy with Light Rain 49 9.4 49 9.4 100 100 ENE 3 6 29.90 1013 1 2 N/A
6:15 am 06:15 Mostly Cloudy with Fog 50 10 50 10 100 100 N N/A 29.91 1013 0 0 N/A
6:52 am 06:52 Mostly Cloudy with Light Rain 50 10 49 9.4 96 96 NNE 3 6 29.90 1013 1 1 N/A
7:03 am 07:03 Mostly Cloudy with Light Rain 50 10 48 9 94 94 NNE 5 7 29.91 1013 1 1 N/A
7:52 am 07:52 Cloudy with Light Rain 50 10 49 9.4 96 96 NNE 7 11 29.88 1012 0 0 0.04 1.02
8:10 am 08:10 Cloudy with Light Rain 50 10 50 10 100 100 N N/A 29.91 1013 1 1 N/A
8:12 am 08:12 Cloudy with Mist and Fog 50 10 50 10 100 100 N N/A 29.91 1013 1 2 N/A
8:23 am 08:23 Cloudy with Mist and Fog 51 10.6 51 10.6 100 100 N N/A 29.91 1013 3 4 N/A
8:52 am 08:52 Cloudy with Mist and Fog 51 10.6 51 10.6 100 100 NE 5 7 29.90 1013 2 2 N/A
9:05 am 09:05 Cloudy with Mist and Fog 51 10.6 51 10.6 100 100 NE 6 9 29.91 1013 2 3 N/A
9:22 am 09:22 Cloudy with Mist and Fog 52 11 52 11 100 100 ENE 6 9 29.88 1012 2 3 N/A
9:52 am 09:52 Cloudy with Mist and Fog 51 10.6 51 10.6 100 100 NE 5 7 29.89 1012 2 3 N/A
10:17 am 10:17 Cloudy with Fog 52 11.1 51 10.6 97 97 N N/A 29.88 1012 1 1 N/A
10:30 am 10:30 Cloudy with Light Rain 52 11 52 11 100 100 N N/A 29.88 1012 0 0 N/A
10:52 am 10:52 Mostly Cloudy with Light Rain 53 11.7 53 11.7 100 100 N N/A 29.86 1011 0 0 0.02 0.51
11:16 am 11:16 Cloudy with Light Rain 54 12 54 12 100 100 N N/A 29.83 1010 1 1 N/A
11:28 am 11:28 Cloudy with Light Rain 54 12 54 12 100 100 N N/A 29.83 1010 1 1 N/A
11:34 am 11:34 Cloudy with Light Rain 54 12 54 12 100 100 N N/A 29.83 1010 1 2 N/A
11:52 am 11:52 Cloudy with Light Rain 55 12.8 55 12.8 100 100 S 5 7 29.82 1010 2 3 0.02 0.51
12:09 pm 12:09 Cloudy with Light Rain 54 12.2 54 12.2 100 100 S 3 6 29.80 1009 2 2 0.02 0.51
12:29 pm 12:29 Cloudy with Light Rain 55 12.8 55 12.8 100 100 S 5 7 29.80 1009 3 5 0.05 1.27
12:52 pm 12:52 Cloudy with Light Rain 56 13.3 55 12.8 97 97 S 7 11 29.78 1009 4 6 0.06 1.52
1:15 pm 13:15 Cloudy with Light Rain 55 12.8 55 12.8 100 100 S 7 11 29.77 1008 2 3 N/A
1:24 pm 13:24 Cloudy with Light Rain 54 12 54 12 100 100 S 9 15 29.77 1008 1 2 N/A
1:36 pm 13:36 Cloudy with Rain 55 13 54 12 94 94 SSE 12 19 29.74 1007 3 5 N/A
1:52 pm 13:52 Cloudy with Light Rain 56 13.3 55 12.8 97 97 S 13 20 29.74 1007 7 11 0.05 1.27
2:26 pm 14:26 Cloudy 55 13 55 13 100 100 S 12 19 29.71 1006 10 16 N/A
2:52 pm 14:52 Cloudy 57 13.9 55 12.8 93 93 SSW 14 22 29.71 1006 10 16 N/A
3:52 pm 15:52 Cloudy 58 14.4 56 13.3 93 93 WSW 6 9 29.70 1006 10 16 N/A
4:28 pm 16:28 Cloudy with Light Rain 57 14 57 14 100 100 SSW 6 9 29.71 1006 3 4 N/A
4:31 pm 16:31 Cloudy with Light Rain 58 14.4 57 13.9 97 97 SW 7 11 29.71 1006 3 5 N/A
4:52 pm 16:52 Cloudy with Drizzle 58 14.4 57 13.9 97 97 SW 7 11 29.70 1006 4 6 0.01 0.25
4:59 pm 16:59 Cloudy with Drizzle 58 14.4 57 13.9 97 97 SSW 7 11 29.71 1006 4 6 N/A
5:17 pm 17:17 Cloudy 58 14.4 57 13.9 97 97 SSW 5 7 29.71 1006 7 11 N/A
5:25 pm 17:25 Cloudy with Drizzle 58 14.4 57 13.9 97 97 SSW 7 11 29.71 1006 5 8 N/A
5:34 pm 17:34 Cloudy with Drizzle 57 14 57 14 100 100 S 8 13 29.71 1006 5 8 N/A
5:52 pm 17:52 Cloudy 58 14.4 57 13.9 97 97 SSW 7 11 29.71 1006 8 13 N/A
5:57 pm 17:57 Cloudy 58 14.4 57 13.9 97 97 W 6 9 29.71 1006 10 16 N/A
6:00 pm 18:00 Cloudy 57 14 57 14 100 100 WSW 6 9 29.71 1006 10 16 N/A
6:07 pm 18:07 Cloudy 59 15 57 13.9 93 93 W 5 7 29.71 1006 10 16 N/A
6:47 pm 18:47 Cloudy 59 15 57 14 94 94 W 10 17 29.74 1007 10 16 N/A
6:52 pm 18:52 Cloudy 59 15 56 13.3 90 90 W 6 9 29.74 1007 10 16 N/A
7:23 pm 19:23 Cloudy 59 15 55 12.8 87 87 NNW 6 9 29.74 1007 10 16 N/A
7:52 pm 19:52 Cloudy 58 14.4 53 11.7 84 84 N 6 9 29.75 1007 10 16 N/A
8:52 pm 20:52 Cloudy 57 13.9 50 10 78 78 NNW 6 9 29.76 1008 10 16 N/A
9:52 pm 21:52 Cloudy 54 12.2 49 9.4 83 83 N 7 11 29.76 1008 10 16 N/A
10:52 pm 22:52 Cloudy 54 12.2 47 8.3 77 77 NNW 9 15 29.78 1008 10 16 N/A
11:52 pm 23:52 Cloudy 54 12.2 42 5.6 64 64 NNW 14 22 29.80 1009 10 16 N/A

Powered by AerisWeather